Location: Holcomb Observatory
(44.4922°N, 73.1654°W)
Time: 01:35:47
(UTC-05:00)

Daily predictions for brighter satellites

Satellite Brightness Start Highest point End
(mag) Time Altitude Azimuth Time Altitude Azimuth Time Altitude Azimuth
Cosmos 2237 Rocket 3.7 03:57:44 28° NNE 03:57:44 28° NNE 04:00:19 10° NNE
Cosmos 2333 Rocket 4.0 04:06:33 20° N 04:06:33 20° N 04:08:24 10° NNE
DELTA 2 R/B (1) 4.2 04:07:47 48° SSE 04:07:47 48° SSE 04:12:21 10° ESE
Cosmos 2219 Rocket 4.2 04:20:20 15° N 04:20:20 15° N 04:21:36 10° N
Atlas Centaur 2 4.1 04:16:10 25° SSW 04:17:29 27° S 04:24:10 10° SE
USA 267 4.4 04:12:02 10° ENE 04:17:31 30° N 04:18:50 28° NNW
Meteor 2-3 Rocket 4.4 04:12:28 10° S 04:18:03 54° E 04:23:36 10° NNE
SL-08 R/B 4.4 04:19:45 35° NNW 04:22:41 78° W 04:29:03 10° S
Lacrosse 5 rocket 2.2 04:23:56 51° SE 04:24:12 52° SE 04:28:44 10° NE
SL-16 R/B 2.0 04:29:36 66° SW 04:30:24 82° WNW 04:36:08 10° NNE
NOSS 3-1 (C) 4.3 04:26:35 28° NNW 04:30:58 67° NE 04:39:18 10° SE
Cosmos 1992 Rocket 4.4 04:27:30 10° S 04:32:38 61° ESE 04:37:48 10° NNE
Cosmos 1725 Rocket 3.8 04:26:58 10° NNW 04:33:10 75° W 04:39:18 10° S
Cosmos 2123 Rocket 3.8 04:27:18 10° SSW 04:33:32 78° W 04:39:51 10° N
DEBRIS 3.9 04:38:24 33° SE 04:38:24 33° SE 04:39:41 10° SE
Cosmos 1606 4.3 04:34:39 15° NNE 04:37:19 33° ENE 04:40:49 10° SE
Okean O Rocket 4.0 04:40:59 10° N 04:41:20 12° N 04:41:20 12° N
Cosmos 1782 3.8 04:45:20 12° N 04:48:52 45° ENE 04:52:40 10° SSE
CZ-4B R/B 3.2 04:44:21 10° N 04:49:56 59° WNW 04:55:28 10° SSW
Meteor 1-26 Rocket 4.1 04:48:03 32° NNW 04:50:35 62° W 04:56:07 10° S
Cosmos 1933 Rocket 4.3 04:52:15 37° NNW 04:52:15 37° NNW 04:55:03 10° N
CZ-2C R/B 4.4 04:46:33 10° NNE 04:51:09 31° E 04:55:38 10° SSE
Cosmos 1503 Rocket 4.0 04:51:37 53° W 04:51:52 53° WSW 04:56:52 10° S
USA 229 DEB 3.8 04:49:11 37° WNW 04:52:01 60° WSW 04:59:12 10° SSE
USA 229 3.8 04:49:15 37° WNW 04:52:07 60° WSW 04:59:18 10° SSE
CZ-2C R/B 3.6 04:49:28 10° S 04:53:54 62° WSW 04:54:19 59° WNW
Cosmos 2297 4.2 04:54:23 39° WSW 04:54:23 39° WSW 04:59:16 10° S
Cosmos 2369 Rocket 3.2 04:48:58 11° NNW 04:54:05 43° ENE 04:59:25 10° SE
NOSS 3-1 (A) 4.3 04:49:47 20° NNW 04:55:26 69° NE 05:03:48 10° SE
COSMO-SKYMED 1 2.8 04:52:00 10° SSE 04:56:19 71° ENE 05:00:31 11° N
Cosmos 1447 Rocket 4.5 04:50:07 10° S 04:56:27 88° E 05:02:46 10° N
Cosmos 2084 Rocket 3.4 04:57:55 51° SSW 04:57:55 51° SSW 05:01:16 10° SSE
Cosmos 1408 3.1 04:56:45 10° S 05:00:26 62° E 05:04:09 10° NNE
IRS-1C Rocket 4.1 04:55:35 10° N 05:00:42 53° WNW 05:05:47 10° SW
SJ-6F 4.4 04:57:25 10° N 05:01:29 57° WNW 05:02:04 51° WSW
USA 116 4.4 04:57:01 10° S 05:02:14 62° W 05:07:09 12° NNW
Cosmos 968 Rocket 3.5 04:59:38 16° NNW 05:03:56 82° ENE 05:09:12 10° SSE
IDEFIX/ARIANE 42P 3.3 05:01:22 10° NNE 05:06:28 55° E 05:11:32 10° S
Cosmos 405 Rocket 3.8 05:03:37 10° N 05:07:12 43° ENE 05:10:46 10° SSE
PSLV R/B 4.4 05:11:52 28° SSW 05:12:39 33° SSE 05:15:34 10° E
MTI 4.5 05:14:13 10° S 05:16:33 36° SW 05:16:33 36° SW
Meteor 1-28 Rocket 4.5 05:15:39 10° SSW 05:17:46 25° SW 05:17:46 25° SW
Cosmos 1862 4.4 05:19:47 10° SSE 05:23:34 46° E 05:27:24 10° NNE
EO 1 Del DPAF 3.4 05:23:22 10° S 05:27:05 48° W 05:29:32 20° NNW
Cosmos 1464 Rocket 4.1 05:21:07 10° N 05:27:24 80° E 05:33:44 10° S
Meteor 2-6 Rocket 4.3 05:23:44 10° NNW 05:29:36 82° W 05:35:33 10° S
Okean 1-7 2.9 05:28:01 10° NNW 05:32:25 71° W 05:36:44 10° S
Cosmos 1943 Rocket 2.9 05:27:02 10° NNW 05:32:38 55° ENE 05:38:11 10° SE
MSX 4.3 05:31:44 10° NNE 05:37:31 67° ESE 05:43:13 10° S
Cosmos 1943 3.6 05:33:54 10° SSW 05:39:33 70° ESE 05:45:13 10° NNE
Cosmos 2237 Rocket 3.9 05:39:35 14° NW 05:39:49 14° NW 05:42:47 10° N
CZ-4 R/B 3.9 05:41:03 10° NE 05:44:18 24° E 05:47:34 10° SSE
SKYMED 2 4.2 05:40:28 10° SSW 05:44:26 35° W 05:48:28 10° NNW
Aureole 3 4.0 05:42:00 10° SSE 05:44:56 42° E 05:47:47 10° NNE
Cosmos 1733 Rocket 4.3 05:43:18 10° SSE 05:47:24 44° E 05:51:34 10° NNE
ATLAS 5 CENTAUR R/B 2.2 05:44:28 10° SSW 05:49:01 67° ESE 05:54:01 10° NE
Gbstr 26 Del rocket 4.0 05:46:28 17° NW 05:49:04 29° N 05:52:33 10° ENE
Abrixas rocket 2.8 05:49:49 20° NW 05:51:46 45° N 05:54:52 10° E
Cosmos 1825 2.8 05:48:31 10° SW 05:51:57 33° WNW 05:55:25 10° N
Cosmos 2263 4.3 05:47:14 10° NNW 05:53:01 88° ENE 05:58:48 10° SSE
BREEZE-M DEB (TANK) 3.0 05:50:45 17° WNW 05:53:25 78° N 05:57:52 10° E
Meteor 1-27 Rocket 3.8 05:49:08 10° NNW 05:55:01 79° W 06:00:44 10° S
Cosmos 2221 Rocket 4.0 05:54:07 10° NNW 05:58:19 41° W 06:02:32 10° SSW
Intercosmos 25 4.2 05:56:50 12° NW 05:59:24 26° W 06:02:52 10° SSW
USA 267 4.0 05:53:27 10° E 05:59:34 44° NNE 06:05:41 10° NW
Okean-O 3.4 05:56:01 10° N 05:59:55 30° WNW 06:03:47 10° SW
Lacrosse 5 rocket 2.3 05:59:41 12° W 06:03:39 35° NNW 06:07:57 10° NE
SJ-12 3.8 05:59:50 10° N 06:03:58 72° WNW 06:08:01 10° SSW
Cosmos 1484 Rocket 3.2 06:03:39 10° NNE 06:07:42 70° ESE 06:11:41 10° S
Genesis I 4.0 06:03:57 10° SSW 06:07:44 55° ESE 06:11:37 10° NE
Cosmos 1441 Rocket 3.8 06:08:36 10° NNW 06:12:04 34° W 06:15:28 10° SSW
Cosmos 1606 4.2 06:10:19 10° NW 06:12:50 17° W 06:15:20 10° SW
SL-16 R/B 3.7 06:11:57 10° W 06:15:27 16° NW 06:18:59 10° N
COSMOS 2441 4.4 06:11:41 10° N 06:16:31 59° WNW 06:21:19 10° SSW
Cosmos 1812 3.9 06:14:16 10° N 06:18:02 46° ENE 06:21:46 10° SSE
Cosmos 1777 Rocket 4.2 06:13:13 10° NNW 06:18:17 52° WSW 06:23:19 10° S
Cosmos 1603 4.3 06:14:37 10° WSW 06:19:44 34° NW 06:24:55 10° N
SMAP 3.2 06:18:00 10° NNE 06:22:41 85° ESE 06:27:20 10° SSW
CSL-04 Debris 4.3 06:21:03 10° NNE 06:26:29 88° ESE 06:31:53 10° SSW
CZ-2C R/B 3.1 06:24:41 10° N 06:29:24 36° WNW 06:34:01 10° SW
ATLAS 2AS CENTAUR R/B 3.6 06:25:17 10° NNW 06:33:14 59° NE 06:40:36 10° SE
